{"data":{"norad_id":57252,"epoch":"2026-09-19T13:20:45.506400Z","epoch_age_seconds":205797,"freshness":"STALE","line1":"1 57252U 23094AL  26262.55608225 -.00001056  00000+0 -28871-4 0  9993","line2":"2 57252  42.9993   4.6610 0000799 217.0767 143.0029 15.27563825176895","mean_motion":15.27563825,"eccentricity":7.99e-5,"inclination_deg":42.9993,"raan_deg":4.661,"arg_perigee_deg":217.0767,"mean_anomaly_deg":143.0029,"bstar":-2.8871e-5,"rev_number":17689,"period_min":94.267746881215,"perigee_km":482.54931759699,"apogee_km":483.64574287492,"semimajor_km":6861.234530236,"source":"CELESTRAK","updated_at":"2026-09-21T09:00:33.591600Z"}}